Location: Recife
(8.0585°S, 34.8848°W)
Time: 10:13:23
(UTC-03:00)

Transit 2A Rocket - Pass Details

Date: 22 April 2026
Orbit: 587 x 895 km, 66.7° (Epoch: 14 May)

Event Time Altitude Azimuth Distance (km) Brightness Sun altitude
Rises 10:45:21 0° 331° (NNW) 2,807 8.1 68.1°
Reaches altitude 10° 10:47:37 10° 326° (NW) 1,902 7.4 68.3°
Maximum altitude 10:51:43 51° 249° (WSW) 740 5.6 68.6°
Drops below altitude 10° 10:55:57 10° 173° (S) 1,947 7.0 68.9°
Sets 10:58:17 0° 167° (SSE) 2,881 7.8 69.0°
